User: anonymous   Login
Location: Desert Center
(33.7130°N, 115.4010°W)
Time: 15:18:27
(UTC-07:00)
Language:

USA 215 - Orbit

View from above orbital plane
View from above orbital plane
View from above satellite
View from above satellite

Ground track
Ground track

The orbit data is extracted from the following two-line orbital elements,

1 37162U 10046A   16239.92355947 0.00000000  00000-0  00000-0 0    08
2 37162 123.0033 342.2406 0003882 130.0310 229.9689 13.41423563    00
Epoch (UTC): 26 August 2016 22:09:55
Eccentricity: 0.0003882
inclination: 123.0033°
perigee height: 1101 km
apogee height: 1107 km
right ascension of ascending node: 342.2406°
argument of perigee: 130.0310°
revolutions per day: 13.41423563
mean anomaly at epoch: 229.9689°
orbit number at epoch: 0

The dashed part of the orbit path shows where the satellite is in the earth's shadow,  

DLR